Regional Weather Roundup
Issued by NWS

Home | Current Version | Previous Version | Graphics & Text | Print | Product List | Glossary On
Versions: 1 2 3 4 5 6 7 8 9 10 11 12 13 14 15 16 17 18 19 20 21 22 23 24 25 26 27 28 29 30 31 32 33 34 35 36 37 38 39 40 41 42 43 44 45 46 47 48 49 50
000
ASUS43 KDMX 210207
RWRIA

WEATHER ROUNDUP FOR IOWA
NATIONAL WEATHER SERVICE DES MOINES IA
900 PM CDT SAT SEP 20 2014

NOTE: "FAIR" INDICATES FEW OR NO CLOUDS BELOW 12,000 FEET WITH NO
SIGNIFICANT WEATHER AND/OR OBSTRUCTIONS TO VISIBILITY.

* - THESE STATIONS ARE NOT NWS STATIONS...THUS NOT UNDER NWS
QUALITY CONTROL.  THEY ALSO DO NOT REPORT WEATHER SUCH
AS PRECIPITATION OR FOG.

IAZ001>003-012>014-020>022-031>034-043>046-210300-
   NORTHWEST IOWA

CITY           SKY/WX    TMP DP  RH WIND       PRES   REMARKS
CARROLL *      CLOUDY    68  59  73 W7        29.91R
CHEROKEE *     PTCLDY    66  54  63 N12       29.97R
DENISON *      PTCLDY    70  57  64 NW9G16    29.93R
LE MARS *        N/A     68  54  60 N9        29.99R
ORANGE CITY *  CLEAR     70  52  52 N13       29.99R
SHELDON *      CLEAR     61  55  82 N6        29.98R
SIOUX CITY     CLEAR     73  51  46 N18G29    29.98R
SPENCER        PTCLDY    62  52  69 N13       29.97R
STORM LAKE *   PTCLDY    66  55  68 N14G22    29.97R
$$

IAZ055>058-069>071-079>083-090>094-210300-
   SOUTHWEST IOWA

CITY           SKY/WX    TMP DP  RH WIND       PRES   REMARKS
ATLANTIC *     CLEAR     68  61  77 W8        29.92S
AUDUBON *      CLEAR     64  55  72 SW6       29.93R
CLARINDA *     CLEAR     64  61  88 CALM      29.96R
COUNCIL BLFS * CLEAR     72  61  68 SW7       29.94R
CRESTON *      CLEAR     68  61  77 W8        29.94R
HARLAN  *      CLEAR     66  61  82 W9        29.96R
LAMONI         CLEAR     69  64  84 W8        29.93R
RED OAK *      CLEAR     64  61  88 CALM      29.95R
SHENANDOAH *   CLEAR     66  61  82 SW5       29.96R
$$

IAZ047>049-059>061-072>074-084-210300-
   CENTRAL IOWA

CITY           SKY/WX    TMP DP  RH WIND       PRES   REMARKS
AMES           CLEAR     69  59  70 W10       29.85S
ANKENY *       CLEAR     70  59  68 W6        29.86S
CHARITON *     CLEAR     72  66  83 W6        29.90R
DES MOINES     CLEAR     72  59  63 W8        29.87R
GRINNELL*      CLEAR     70  57  64 W10       29.86R
KNOXVILLE *    CLEAR     68  61  77 W9        29.86S
MARSHALLTOWN   CLEAR     70  59  68 W10       29.82S
PELLA *        CLEAR     72  61  68 W8        29.87S
PERRY *          N/A     68  59  73 W8        29.88S
$$

IAZ004>006-015-016-023>025-035-036-210300-
   NORTH CENTRAL IOWA

CITY           SKY/WX    TMP DP  RH WIND       PRES   REMARKS
ALGONA *       CLEAR     63  55  77 N17G24    29.94R
CLARION *        N/A     63  57  82 N18       29.92R
ESTHERVILLE    CLEAR     60  53  77 NW12      29.96R
FORT DODGE *   MOCLDY    66  50  55 N14G23    29.95R
MASON CITY     PTCLDY    60  57  89 NW17G26   29.91R
FOREST CITY *  CLEAR     59  57  94 NW15G23   29.92R
IOWA FALLS *   LGT RAIN  64  59  82 NW9       29.91R
$$

IAZ007>011-017>019-026>030-037>042-050>054-066-210300-
   NORTHEAST IOWA

CITY           SKY/WX    TMP DP  RH WIND       PRES   REMARKS
CEDAR RAPIDS   CLEAR     68  65  90 SW7       29.80S
CHARLES CITY * MOCLDY    61  57  88 N9        29.86R
CLINTON *      PTCLDY    68  64  88 SW7       29.81F
DECORAH *      LGT RAIN  61  59  94 NW9G20    29.83R
DUBUQUE        CLEAR     64  62  93 SW7       29.77F
MONTICELLO *   CLEAR     66  63  88 S8        29.77F
OELWEIN *      RAIN      64  61  88 N24G44    29.85R
WATERLOO       LGT RAIN  63  59  87 N18G29    29.85R
$$

IAZ064-065-067-068-078-210300-
   EAST CENTRAL IOWA

CITY           SKY/WX    TMP DP  RH WIND       PRES   REMARKS
DAVENPORT      CLEAR     71  65  81 SW9       29.80F
IOWA CITY        N/A     71  66  84 W7        29.82S
MT. PLEASANT * CLEAR     72  68  88 SW6       29.85S
MUSCATINE *    CLEAR     73  68  83 SW14      29.82R
QUAD CITIES    CLEAR     71  66  84 SW9       29.80S
$$

IAZ062-063-075>077-085>089-095>099-210300-
   SOUTHEAST IOWA

CITY           SKY/WX    TMP DP  RH WIND       PRES   REMARKS
BURLINGTON     LGT RAIN  73  69  87 W8        29.84F
FAIRFIELD *    CLEAR     72  68  88 SW7       29.86R
FORT MADISON * CLEAR     75  70  83 W5        29.87S
KEOKUK *       PTCLDY    70  68  94 W6        29.86S
OSKALOOSA *      N/A     70  68  94 W6        29.86S
CENTERVILLE *  CLEAR     70  70 100 W7        29.91R
OTTUMWA        CLEAR     71  67  87 SW7       29.86R
WASHINGTON *   CLEAR     72  70  94 SW9       29.84R
$$

ABBREVIATIONS USED IN REMARKS
   TC - TEMPERATURES IN CELSIUS
  WCI - WIND CHILL INDEX
   HX - HEAT INDEX
  VSB - VISIBILITY
$$



USA.gov is the U.S. government's official web portal to all federal, state and local government web resources and services.